Retour au catalogue

OPS 4682 DEB

ActifPO
NORAD 38456·DEBRIS·🇺🇸 United States

Lancé Apr 3, 1965 depuis Vandenberg Space Force Base

Loading…

Prochains Passages (prochaines 24 heures)

TLE

FraisSource: Space-Track

Époque: Sep 13, 2026, 13:43 UTC

1 38456U 65027FM  26256.57201554 -.00000246  00000-0 -87364-3 0  9991
2 38456  90.2687   6.0084 0022912 140.8374 219.4410 12.97477239101397

Suivez OPS 4682 DEB en temps réel avec AllMySat

Download on the App Store